K2YYD-2 Weather Reports


time (UTC)temp
C
wind
direction
speed
KPH
gust
KPH
rain 1hr
cm
rain 24hr
cm
rain mn
cm
humidity
%
barometer
mb
20260506024959 16 163 6.4 16.1 0.00 0.00 0.00 79 1007.9
20260506024759 16 198 6.4 16.1 0.00 0.00 0.00 79 1007.8
20260506024559 16 191 6.4 19.3 0.00 0.00 0.00 79 1007.9
20260506024359 16 258 6.4 19.3 0.00 0.00 0.00 79 1007.9
20260506024159 16 168 8.0 19.3 0.00 0.00 0.00 78 1007.9
20260506023959 16 225 8.0 19.3 0.00 0.00 0.00 78 1007.9
20260506023800 16 181 8.0 19.3 0.00 0.00 0.00 78 1007.9
20260506023600 16 173 8.0 19.3 0.00 0.00 0.00 78 1007.9
20260506023359 16 210 8.0 16.1 0.00 0.00 0.00 77 1007.9
20260506023200 16 163 8.0 14.5 0.00 0.00 0.00 77 1007.9
20260506023000 16 143 6.4 14.5 0.00 0.00 0.00 77 1007.9
20260506022759 16 68 8.0 14.5 0.00 0.00 0.00 77 1007.9
20260506022600 16 140 8.0 14.5 0.00 0.00 0.00 77 1007.9
20260506022359 16 159 8.0 19.3 0.00 0.00 0.00 76 1007.8
20260506022159 16 171 8.0 19.3 0.00 0.00 0.00 76 1007.9
20260506021957 16 218 8.0 19.3 0.00 0.00 0.00 76 1007.8
20260506021753 16 129 6.4 19.3 0.00 0.00 0.00 76 1007.9
20260506021553 16 164 6.4 19.3 0.00 0.00 0.00 76 1007.8
20260506021354 16 192 6.4 16.1 0.00 0.00 0.00 76 1007.8
20260506021150 16 218 6.4 16.1 0.00 0.00 0.00 76 1007.9
20260506020950 16 197 6.4 14.5 0.00 0.00 0.00 76 1008.0
20260506020748 16 185 8.0 14.5 0.00 0.00 0.00 76 1007.9
20260506020548 16 180 6.4 14.5 0.00 0.00 0.00 75 1007.9
20260506020347 16 163 6.4 14.5 0.00 0.00 0.00 75 1007.9
20260506020147 16 183 6.4 14.5 0.00 0.00 0.00 75 1007.9
20260506015948 16 180 6.4 14.5 0.00 0.00 0.00 75 1007.9
20260506015748 16 206 6.4 14.5 0.00 0.00 0.00 75 1007.9
20260506015548 16 169 8.0 14.5 0.00 0.00 0.00 75 1007.9
20260506015347 16 197 8.0 14.5 0.00 0.00 0.00 75 1007.8
20260506015148 16 175 8.0 14.5 0.00 0.00 0.00 75 1007.8
20260506014947 16 163 8.0 16.1 0.00 0.00 0.00 75 1007.8
20260506014748 16 142 8.0 19.3 0.00 0.00 0.00 75 1007.7
20260506014548 16 179 8.0 19.3 0.00 0.00 0.00 75 1007.8
20260506014348 16 175 6.4 19.3 0.00 0.00 0.00 75 1007.7
20260506014148 16 178 6.4 19.3 0.00 0.00 0.00 75 1007.6
20260506013948 16 187 6.4 19.3 0.00 0.00 0.00 75 1007.6
20260506013748 16 172 6.4 14.5 0.00 0.00 0.00 75 1007.6
20260506013548 16 177 8.0 20.9 0.00 0.00 0.00 75 1007.6
20260506013348 16 276 8.0 20.9 0.00 0.00 0.00 74 1007.6
20260506013148 16 178 9.7 20.9 0.00 0.00 0.00 74 1007.5
20260506012948 16 176 9.7 20.9 0.00 0.00 0.00 74 1007.5
20260506012748 16 177 9.7 20.9 0.00 0.00 0.00 74 1007.5
20260506012548 16 268 9.7 19.3 0.00 0.00 0.00 74 1007.5
20260506012348 16 180 9.7 19.3 0.00 0.00 0.00 73 1007.5
20260506012148 16 173 9.7 19.3 0.00 0.00 0.00 73 1007.4
20260506011949 17 174 9.7 20.9 0.00 0.00 0.00 73 1007.4
20260506011748 17 164 9.7 20.9 0.00 0.00 0.00 73 1007.4
20260506011548 17 178 8.0 20.9 0.00 0.00 0.00 72 1007.4
20260506011349 17 163 8.0 20.9 0.00 0.00 0.00 72 1007.3
20260506011149 17 183 8.0 20.9 0.00 0.00 0.00 72 1007.4
20260506010949 17 191 8.0 14.5 0.00 0.00 0.00 72 1007.3
20260506010748 17 159 8.0 14.5 0.00 0.00 0.00 72 1007.3
20260506010548 17 154 8.0 14.5 0.00 0.00 0.00 72 1007.3
20260506010349 17 166 8.0 16.1 0.00 0.00 0.00 72 1007.3
20260506010148 17 167 8.0 16.1 0.00 0.00 0.00 72 1007.3
20260506005948 17 185 8.0 16.1 0.00 0.00 0.00 72 1007.3
20260506005749 17 163 8.0 16.1 0.00 0.00 0.00 72 1007.2
20260506005548 17 180 8.0 16.1 0.00 0.00 0.00 72 1007.1
20260506005346 17 168 8.0 14.5 0.00 0.00 0.00 72 1007.1
20260506005143 17 168 6.4 14.5 0.00 0.00 0.00 72 1007.1
20260506004943 17 182 6.4 16.1 0.00 0.00 0.00 71 1007.1
20260506004743 17 168 8.0 19.3 0.00 0.00 0.00 71 1007.1
20260506004542 17 216 6.4 19.3 0.00 0.00 0.00 70 1007.1
20260506004343 17 168 6.4 19.3 0.00 0.00 0.00 70 1007.1
20260506004143 17 166 6.4 19.3 0.00 0.00 0.00 70 1007.0
20260506003943 17 216 6.4 19.3 0.00 0.00 0.00 69 1006.9
20260506003743 17 168 6.4 14.5 0.00 0.00 0.00 69 1007.0
20260506003543 17 230 6.4 14.5 0.00 0.00 0.00 69 1007.0
20260506003343 17 175 6.4 14.5 0.00 0.00 0.00 69 1006.9
20260506003143 17 250 6.4 14.5 0.00 0.00 0.00 69 1006.9
20260506002943 17 171 6.4 14.5 0.00 0.00 0.00 68 1006.9
20260506002826 18 163 6.4 14.5 0.00 0.00 0.00 68 1006.8
20260506002601 18 201 6.4 14.5 0.00 0.00 0.00 68 1006.8
20260506002343 18 171 6.4 14.5 0.00 0.00 0.00 68 1006.8
20260506002143 18 186 6.4 14.5 0.00 0.00 0.00 68 1006.8
20260506001943 18 151 6.4 14.5 0.00 0.00 0.00 68 1006.8
20260506001743 18 290 6.4 14.5 0.00 0.00 0.00 68 1006.7
20260506001543 18 178 6.4 14.5 0.00 0.00 0.00 68 1006.8
20260506001343 18 169 6.4 14.5 0.00 0.00 0.00 68 1006.8
20260506001143 18 183 6.4 19.3 0.00 0.00 0.00 67 1006.7
20260506000943 18 177 6.4 19.3 0.00 0.00 0.00 68 1006.7
20260506000743 17 181 6.4 19.3 0.00 0.00 0.00 68 1006.7
20260506000543 18 184 6.4 19.3 0.00 0.00 0.00 68 1006.7
20260506000344 18 186 6.4 19.3 0.00 0.00 0.00 67 1006.6
20260506000144 18 176 6.4 12.9 0.00 0.00 0.00 68 1006.6
20260505235943 18 193 6.4 12.9 0.00 0.00 0.00 67 1006.5
20260505235743 18 74 4.8 12.9 0.00 0.00 0.00 67 1006.6
20260505235543 18 158 6.4 12.9 0.00 0.00 0.00 67 1006.5
20260505235344 18 174 6.4 12.9 0.00 0.00 0.00 67 1006.5
20260505235143 18 55 4.8 12.9 0.00 0.00 0.00 67 1006.5
20260505234943 18 279 4.8 14.5 0.00 0.00 0.00 67 1006.6
20260505234744 18 167 6.4 14.5 0.00 0.00 0.00 67 1006.5
20260505234559 18 154 6.4 14.5 0.00 0.00 0.00 67 1006.5
20260505234343 18 243 6.4 14.5 0.00 0.00 0.00 67 1006.4
20260505234141 18 217 6.4 14.5 0.00 0.00 0.00 67 1006.3
20260505233940 18 173 8.0 16.1 0.00 0.00 0.00 67 1006.3
20260505233741 18 149 8.0 16.1 0.00 0.00 0.00 66 1006.2
20260505233542 18 186 8.0 16.1 0.00 0.00 0.00 66 1006.2
20260505233340 18 172 8.0 16.1 0.00 0.00 0.00 66 1006.3
20260505233140 18 183 8.0 16.1 0.00 0.00 0.00 66 1006.2
20260505232941 18 176 6.4 16.1 0.00 0.00 0.00 66 1006.2
20260505232741 18 201 6.4 16.1 0.00 0.00 0.00 66 1006.1
20260505232541 18 172 6.4 16.1 0.00 0.00 0.00 66 1006.0
20260505232341 18 268 6.4 16.1 0.00 0.00 0.00 66 1006.1
20260505232141 18 245 4.8 11.3 0.00 0.00 0.00 66 1006.0
20260505231941 18 182 4.8 11.3 0.00 0.00 0.00 66 1006.0
20260505231741 18 279 4.8 12.9 0.00 0.00 0.00 66 1006.0
20260505231541 18 147 6.4 12.9 0.00 0.00 0.00 66 1006.0
20260505231341 18 215 6.4 12.9 0.00 0.00 0.00 66 1005.9
20260505231141 18 176 6.4 12.9 0.00 0.00 0.00 66 1005.9
20260505230941 18 171 8.0 17.7 0.00 0.00 0.00 66 1005.9
20260505230741 18 198 8.0 17.7 0.00 0.00 0.00 66 1005.9
20260505230541 18 172 8.0 17.7 0.00 0.00 0.00 66 1005.9
20260505230341 18 205 6.4 17.7 0.00 0.00 0.00 66 1005.8
20260505230141 18 168 6.4 17.7 0.00 0.00 0.00 66 1005.8
20260505225941 18 175 6.4 17.7 0.00 0.00 0.00 65 1005.8
20260505225741 18 180 6.4 17.7 0.00 0.00 0.00 65 1005.7
20260505225541 18 217 4.8 12.9 0.00 0.00 0.00 65 1005.7
20260505225341 18 212 6.4 12.9 0.00 0.00 0.00 64 1005.8
20260505225142 18 172 6.4 12.9 0.00 0.00 0.00 64 1005.8
20260505224942 18 169 6.4 14.5 0.00 0.00 0.00 64 1005.8
20260505224741 18 243 6.4 24.1 0.00 0.00 0.00 64 1005.8
20260505224541 18 189 6.4 24.1 0.00 0.00 0.00 64 1005.8
20260505224342 18 209 8.0 24.1 0.00 0.00 0.00 64 1005.9
20260505224142 18 180 9.7 29.0 0.00 0.00 0.00 64 1005.9
20260505223941 19 179 9.7 29.0 0.00 0.00 0.00 63 1005.9
20260505223742 19 179 9.7 29.0 0.00 0.00 0.00 63 1005.8
20260505223542 19 182 9.7 29.0 0.00 0.00 0.00 62 1005.7
20260505223342 19 172 9.7 29.0 0.00 0.00 0.00 61 1005.7
20260505223142 19 185 9.7 27.4 0.00 0.00 0.00 61 1005.6
20260505222942 19 158 9.7 20.9 0.00 0.00 0.00 61 1005.7
20260505222739 20 187 9.7 20.9 0.00 0.00 0.00 61 1005.6
20260505222539 20 172 9.7 20.9 0.00 0.00 0.00 61 1005.5
20260505222339 20 183 9.7 20.9 0.00 0.00 0.00 60 1005.5
20260505222138 20 185 9.7 20.9 0.00 0.00 0.00 60 1005.6
20260505221938 20 193 9.7 19.3 0.00 0.00 0.00 60 1005.6
20260505221739 20 152 9.7 19.3 0.00 0.00 0.00 60 1005.6
20260505221536 20 194 9.7 19.3 0.00 0.00 0.00 60 1005.5
20260505221335 20 174 9.7 20.9 0.00 0.00 0.00 60 1005.5
20260505221135 20 80 9.7 20.9 0.00 0.00 0.00 60 1005.5
20260505220936 20 202 9.7 20.9 0.00 0.00 0.00 60 1005.5
20260505220736 20 187 9.7 20.9 0.00 0.00 0.00 60 1005.6
20260505220536 20 196 9.7 20.9 0.00 0.00 0.00 60 1005.6
20260505220335 20 124 9.7 20.9 0.00 0.00 0.00 60 1005.6
20260505220137 20 298 9.7 19.3 0.00 0.00 0.00 60 1005.6
20260505215936 20 152 9.7 19.3 0.00 0.00 0.00 60 1005.5
20260505215736 20 162 9.7 19.3 0.00 0.00 0.00 59 1005.5
20260505215536 20 190 9.7 19.3 0.00 0.00 0.00 59 1005.5
20260505215336 20 194 9.7 19.3 0.00 0.00 0.00 60 1005.6
20260505215136 20 185 9.7 20.9 0.00 0.00 0.00 60 1005.6
20260505214937 20 151 9.7 20.9 0.00 0.00 0.00 59 1005.7
20260505214736 20 183 9.7 20.9 0.00 0.00 0.00 59 1005.6
20260505214536 20 177 9.7 20.9 0.00 0.00 0.00 60 1005.5
20260505214337 20 182 9.7 20.9 0.00 0.00 0.00 59 1005.5
20260505214136 20 182 8.0 19.3 0.00 0.00 0.00 60 1005.6
20260505213936 20 184 8.0 19.3 0.00 0.00 0.00 60 1005.6
20260505213736 20 173 8.0 17.7 0.00 0.00 0.00 60 1005.6
20260505213537 20 200 6.4 16.1 0.00 0.00 0.00 60 1005.6
20260505213337 20 208 8.0 17.7 0.00 0.00 0.00 60 1005.6
20260505213136 20 205 8.0 17.7 0.00 0.00 0.00 60 1005.6
20260505212936 20 281 8.0 19.3 0.00 0.00 0.00 60 1005.5
20260505212737 20 185 9.7 20.9 0.00 0.00 0.00 60 1005.5
20260505212548 20 281 9.7 20.9 0.00 0.00 0.00 61 1005.4
20260505212336 20 202 9.7 20.9 0.00 0.00 0.00 61 1005.4
20260505212137 20 195 9.7 20.9 0.00 0.00 0.00 61 1005.5
20260505211933 20 191 9.7 20.9 0.00 0.00 0.00 61 1005.3
20260505211734 20 163 9.7 17.7 0.00 0.00 0.00 61 1005.4
20260505211534 20 194 9.7 17.7 0.00 0.00 0.00 61 1005.3
20260505211333 20 194 9.7 17.7 0.00 0.00 0.00 62 1005.3
20260505211134 20 183 8.0 17.7 0.00 0.00 0.00 62 1005.3
20260505210934 20 177 9.7 19.3 0.00 0.00 0.00 62 1005.3
20260505210734 20 191 9.7 19.3 0.00 0.00 0.00 63 1005.3
20260505210534 20 183 9.7 19.3 0.00 0.00 0.00 63 1005.4
20260505210333 20 221 8.0 19.3 0.00 0.00 0.00 63 1005.4
20260505210134 20 192 9.7 19.3 0.00 0.00 0.00 63 1005.4
20260505205934 20 150 8.0 16.1 0.00 0.00 0.00 63 1005.2
20260505205734 20 186 8.0 17.7 0.00 0.00 0.00 62 1005.4
20260505205534 20 212 8.0 17.7 0.00 0.00 0.00 63 1005.4
20260505205334 20 160 8.0 17.7 0.00 0.00 0.00 63 1005.4
20260505205134 20 174 8.0 17.7 0.00 0.00 0.00 63 1005.4
20260505204934 20 176 8.0 17.7 0.00 0.00 0.00 63 1005.4
20260505204734 20 194 6.4 16.1 0.00 0.00 0.00 63 1005.5
20260505204534 20 160 8.0 16.1 0.00 0.00 0.00 63 1005.4
20260505204334 20 195 6.4 16.1 0.00 0.00 0.00 63 1005.5
20260505204134 20 183 6.4 16.1 0.00 0.00 0.00 63 1005.5
20260505203934 20 187 6.4 16.1 0.00 0.00 0.00 62 1005.4
20260505203734 20 188 6.4 16.1 0.00 0.00 0.00 62 1005.4
20260505203535 20 219 8.0 16.1 0.00 0.00 0.00 63 1005.5
20260505203334 20 174 8.0 16.1 0.00 0.00 0.00 63 1005.4
20260505203135 20 182 8.0 19.3 0.00 0.00 0.00 63 1005.4
20260505202935 20 180 9.7 19.3 0.00 0.00 0.00 63 1005.4
20260505202735 20 186 9.7 19.3 0.00 0.00 0.00 63 1005.5
20260505202544 20 194 9.7 19.3 0.00 0.00 0.00 63 1005.5
20260505202134 20 181 9.7 19.3 0.00 0.00 0.00 63 1005.6
20260505201934 20 277 9.7 19.3 0.00 0.00 0.00 62 1005.6
20260505201732 20 152 9.7 19.3 0.00 0.00 0.00 62 1005.6
20260505201532 20 149 8.0 17.7 0.00 0.00 0.00 62 1005.6
20260505201329 20 166 8.0 16.1 0.00 0.00 0.00 62 1005.6
20260505201129 20 193 8.0 16.1 0.00 0.00 0.00 62 1005.6
20260505200928 21 178 6.4 16.1 0.00 0.00 0.00 60 1005.7
20260505200726 21 171 6.4 14.5 0.00 0.00 0.00 60 1005.6
20260505200526 21 317 6.4 16.1 0.00 0.00 0.00 61 1005.6
20260505200327 21 194 6.4 16.1 0.00 0.00 0.00 60 1005.6
20260505200123 21 138 6.4 16.1 0.00 0.00 0.00 60 1005.7
20260505195923 21 80 6.4 16.1 0.00 0.00 0.00 62 1005.7
20260505195722 21 184 6.4 16.1 0.00 0.00 0.00 61 1005.8
20260505195523 21 155 6.4 17.7 0.00 0.00 0.00 60 1005.7
20260505195323 21 194 6.4 17.7 0.00 0.00 0.00 60 1005.7
20260505195123 21 158 6.4 17.7 0.00 0.00 0.00 60 1005.7
20260505194923 21 164 6.4 17.7 0.00 0.00 0.00 60 1005.8
20260505194723 21 189 6.4 17.7 0.00 0.00 0.00 59 1005.8
20260505194523 21 281 6.4 14.5 0.00 0.00 0.00 61 1006.0
20260505194323 21 250 6.4 14.5 0.00 0.00 0.00 60 1005.9
20260505194122 21 299 6.4 14.5 0.00 0.00 0.00 61 1006.0
20260505193922 21 156 6.4 14.5 0.00 0.00 0.00 59 1005.9
20260505193723 21 277 6.4 11.3 0.00 0.00 0.00 61 1006.0
20260505193523 21 74 6.4 14.5 0.00 0.00 0.00 61 1005.9
20260505193323 21 214 6.4 14.5 0.00 0.00 0.00 61 1006.0
20260505193121 21 334 6.4 14.5 0.00 0.00 0.00 61 1006.1
20260505192921 20 106 6.4 14.5 0.00 0.00 0.00 62 1006.1
20260505192722 20 181 6.4 14.5 0.00 0.00 0.00 62 1006.2
20260505192522 20 324 6.4 14.5 0.00 0.00 0.00 62 1006.2
20260505192322 20 210 6.4 14.5 0.00 0.00 0.00 62 1006.2
20260505192122 20 160 6.4 14.5 0.00 0.00 0.00 63 1006.3
20260505191921 20 158 6.4 14.5 0.00 0.00 0.00 63 1006.3
20260505191721 20 182 6.4 14.5 0.00 0.00 0.00 62 1006.3
20260505191521 20 159 6.4 12.9 0.00 0.00 0.00 62 1006.5
20260505191322 20 182 6.4 12.9 0.00 0.00 0.00 63 1006.5
20260505191122 20 188 6.4 12.9 0.00 0.00 0.00 63 1006.4
20260505190921 20 178 6.4 14.5 0.00 0.00 0.00 63 1006.4
20260505190722 20 174 6.4 17.7 0.00 0.00 0.00 63 1006.6
20260505190520 20 293 8.0 17.7 0.00 0.00 0.00 63 1006.5
20260505190321 20 187 8.0 17.7 0.00 0.00 0.00 64 1006.6
20260505190121 20 179 8.0 17.7 0.00 0.00 0.00 63 1006.5
20260505185920 20 170 8.0 24.1 0.00 0.00 0.00 63 1006.6
20260505185721 20 279 8.0 24.1 0.00 0.00 0.00 63 1006.8
20260505185521 20 184 8.0 24.1 0.00 0.00 0.00 63 1006.7
20260505185318 20 181 9.7 24.1 0.00 0.00 0.00 63 1006.7
20260505185115 20 196 9.7 24.1 0.00 0.00 0.00 63 1006.7
20260505184915 20 175 8.0 17.7 0.00 0.00 0.00 63 1006.7
20260505184715 20 170 8.0 17.7 0.00 0.00 0.00 63 1006.9
20260505184515 21 188 8.0 17.7 0.00 0.00 0.00 63 1006.9
20260505184314 21 251 6.4 17.7 0.00 0.00 0.00 62 1006.8
20260505184115 21 304 6.4 16.1 0.00 0.00 0.00 61 1006.9
20260505183915 21 182 6.4 16.1 0.00 0.00 0.00 61 1007.0
20260505183715 21 202 6.4 16.1 0.00 0.00 0.00 63 1007.0
20260505183514 21 114 6.4 16.1 0.00 0.00 0.00 62 1007.0
20260505183315 21 186 6.4 16.1 0.00 0.00 0.00 62 1007.0
20260505183115 21 165 6.4 14.5 0.00 0.00 0.00 63 1007.1
20260505182915 21 315 6.4 14.5 0.00 0.00 0.00 64 1007.0
20260505182715 21 265 6.4 11.3 0.00 0.00 0.00 63 1007.0
20260505182315 21 135 6.4 12.9 0.00 0.00 0.00 62 1007.0
20260505182115 21 285 6.4 12.9 0.00 0.00 0.00 62 1007.0
20260505181915 21 276 6.4 12.9 0.00 0.00 0.00 63 1007.1
20260505181715 21 142 4.8 12.9 0.00 0.00 0.00 64 1007.0
20260505181515 21 124 4.8 12.9 0.00 0.00 0.00 63 1007.0
20260505181315 21 140 4.8 11.3 0.00 0.00 0.00 63 1007.1
20260505181115 21 317 4.8 11.3 0.00 0.00 0.00 64 1007.1
20260505180915 21 166 4.8 12.9 0.00 0.00 0.00 63 1007.1
20260505180716 21 276 6.4 12.9 0.00 0.00 0.00 63 1007.1
20260505180516 21 130 6.4 12.9 0.00 0.00 0.00 63 1007.1
20260505180315 20 274 4.8 12.9 0.00 0.00 0.00 64 1007.1
20260505180115 20 100 4.8 12.9 0.00 0.00 0.00 64 1007.1
20260505175915 20 191 4.8 12.9 0.00 0.00 0.00 64 1007.1
20260505175715 20 186 4.8 12.9 0.00 0.00 0.00 64 1007.2
20260505175516 20 320 4.8 11.3 0.00 0.00 0.00 64 1007.2
20260505175316 20 124 4.8 11.3 0.00 0.00 0.00 64 1007.2
20260505175115 20 104 4.8 11.3 0.00 0.00 0.00 64 1007.3
20260505174912 20 155 4.8 9.7 0.00 0.00 0.00 64 1007.3
20260505174713 20 302 4.8 9.7 0.00 0.00 0.00 64 1007.3
20260505174510 20 114 4.8 12.9 0.00 0.00 0.00 65 1007.3
20260505174307 20 117 6.4 12.9 0.00 0.00 0.00 65 1007.3
20260505174109 20 91 4.8 12.9 0.00 0.00 0.00 65 1007.3
20260505173905 20 204 4.8 12.9 0.00 0.00 0.00 65 1007.3
20260505173705 20 167 6.4 12.9 0.00 0.00 0.00 64 1007.3
20260505173534 20 169 4.8 12.9 0.00 0.00 0.00 64 1007.3
20260505173305 20 196 4.8 12.9 0.00 0.00 0.00 65 1007.4
20260505173104 20 182 6.4 12.9 0.00 0.00 0.00 64 1007.4
20260505172905 20 184 6.4 12.9 0.00 0.00 0.00 64 1007.4
20260505172705 20 37 6.4 12.9 0.00 0.00 0.00 65 1007.3
20260505172505 20 119 6.4 12.9 0.00 0.00 0.00 66 1007.4
20260505172306 20 198 8.0 12.9 0.00 0.00 0.00 66 1007.4
20260505172106 20 187 6.4 12.9 0.00 0.00 0.00 65 1007.4
20260505171905 20 196 6.4 12.9 0.00 0.00 0.00 64 1007.4
20260505171706 20 167 6.4 12.9 0.00 0.00 0.00 64 1007.4
20260505171506 20 287 8.0 14.5 0.00 0.00 0.00 64 1007.4
20260505171305 20 174 8.0 14.5 0.00 0.00 0.00 65 1007.4
20260505171106 21 182 8.0 14.5 0.00 0.00 0.00 64 1007.4
20260505170906 21 182 6.4 14.5 0.00 0.00 0.00 63 1007.4
20260505170705 21 182 6.4 14.5 0.00 0.00 0.00 63 1007.5
20260505170505 21 179 4.8 14.5 0.00 0.00 0.00 62 1007.5
20260505170306 21 196 4.8 12.9 0.00 0.00 0.00 62 1007.5
20260505170106 21 124 4.8 12.9 0.00 0.00 0.00 61 1007.5
20260505165906 21 181 4.8 12.9 0.00 0.00 0.00 62 1007.5
20260505165705 21 272 4.8 12.9 0.00 0.00 0.00 62 1007.5
20260505165505 21 177 4.8 12.9 0.00 0.00 0.00 62 1007.5
20260505165306 21 299 4.8 12.9 0.00 0.00 0.00 61 1007.5
20260505165106 21 66 6.4 14.5 0.00 0.00 0.00 61 1007.5
20260505164906 21 179 6.4 14.5 0.00 0.00 0.00 61 1007.5
20260505164705 21 253 6.4 14.5 0.00 0.00 0.00 61 1007.6
20260505164506 21 211 6.4 14.5 0.00 0.00 0.00 62 1007.5
20260505164305 21 178 6.4 14.5 0.00 0.00 0.00 61 1007.6
20260505164106 21 187 4.8 11.3 0.00 0.00 0.00 61 1007.6
20260505163905 21 167 4.8 9.7 0.00 0.00 0.00 61 1007.6
20260505163704 21 261 4.8 9.7 0.00 0.00 0.00 60 1007.7
20260505163504 21 303 4.8 9.7 0.00 0.00 0.00 61 1007.7
20260505163305 21 125 6.4 12.9 0.00 0.00 0.00 61 1007.7
20260505163105 21 267 4.8 12.9 0.00 0.00 0.00 61 1007.8
20260505162905 21 102 4.8 12.9 0.00 0.00 0.00 61 1007.8
20260505162702 21 103 6.4 12.9 0.00 0.00 0.00 59 1007.8
20260505162502 21 12 4.8 14.5 0.00 0.00 0.00 60 1007.9
20260505162301 21 130 6.4 14.5 0.00 0.00 0.00 61 1007.9
20260505162101 21 171 6.4 14.5 0.00 0.00 0.00 61 1007.9
20260505161901 21 184 6.4 14.5 0.00 0.00 0.00 61 1007.9
20260505161702 21 167 6.4 14.5 0.00 0.00 0.00 62 1007.9
20260505161502 21 183 6.4 14.5 0.00 0.00 0.00 61 1007.9
20260505161302 21 174 6.4 12.9 0.00 0.00 0.00 61 1007.9
20260505161102 21 180 6.4 12.9 0.00 0.00 0.00 61 1008.0
20260505160902 21 171 6.4 12.9 0.00 0.00 0.00 62 1007.9
20260505160702 21 150 6.4 12.9 0.00 0.00 0.00 59 1007.9
20260505160502 21 189 6.4 12.9 0.00 0.00 0.00 60 1007.9
20260505160303 21 108 6.4 12.9 0.00 0.00 0.00 62 1007.9
20260505153303 21 154 4.8 9.7 0.00 0.00 0.00 62 1008.0
20260505153103 21 212 4.8 9.7 0.00 0.00 0.00 61 1008.1
20260505152902 21 189 4.8 9.7 0.00 0.00 0.00 62 1008.1
20260505152703 21 324 4.8 9.7 0.00 0.00 0.00 61 1008.2
20260505152503 21 200 4.8 11.3 0.00 0.00 0.00 62 1008.3
20260505152305 20 178 4.8 11.3 0.00 0.00 0.00 62 1008.3
20260505152102 20 204 4.8 12.9 0.00 0.00 0.00 63 1008.3
20260505151902 20 78 4.8 12.9 0.00 0.00 0.00 62 1008.3
20260505151700 20 289 4.8 12.9 0.00 0.00 0.00 63 1008.4
20260505151459 20 294 4.8 12.9 0.00 0.00 0.00 63 1008.4
20260505151300 20 135 4.8 12.9 0.00 0.00 0.00 63 1008.4
20260505151100 20 197 4.8 9.7 0.00 0.00 0.00 63 1008.4
20260505150900 21 173 4.8 9.7 0.00 0.00 0.00 63 1008.4
20260505150700 21 137 4.8 9.7 0.00 0.00 0.00 63 1008.5
20260505150500 21 289 4.8 9.7 0.00 0.00 0.00 62 1008.5
20260505150300 21 181 4.8 9.7 0.00 0.00 0.00 62 1008.5
20260505140455 20 181 6.4 14.5 0.00 0.00 0.00 62 1008.1
20260505140251 20 263 6.4 14.5 0.00 0.00 0.00 60 1008.1
20260505130247 18 156 3.2 9.7 0.00 0.00 0.00 67 1008.1
20260505125041 17 182 4.8 11.3 0.00 0.00 0.00 70 1008.0
20260505124841 17 260 4.8 11.3 0.00 0.00 0.00 70 1007.9
20260505124640 17 234 4.8 11.3 0.00 0.00 0.00 71 1007.9
20260505124441 17 188 4.8 11.3 0.00 0.00 0.00 71 1007.9
20260505124240 17 267 4.8 9.7 0.00 0.00 0.00 70 1007.8
20260505124041 17 160 3.2 9.7 0.00 0.00 0.00 70 1007.7
20260505123840 17 182 3.2 9.7 0.00 0.00 0.00 71 1007.7
20260505123641 17 169 3.2 9.7 0.00 0.00 0.00 71 1007.7
20260505123441 17 182 3.2 8.0 0.00 0.00 0.00 72 1007.7
20260505123241 17 178 3.2 8.0 0.00 0.00 0.00 72 1007.7
20260505123041 17 272 3.2 8.0 0.00 0.00 0.00 72 1007.7
20260505122840 17 160 3.2 8.0 0.00 0.00 0.00 73 1007.7
20260505122641 17 224 3.2 8.0 0.00 0.00 0.00 73 1007.7
20260505122441 17 283 3.2 8.0 0.00 0.00 0.00 74 1007.7
20260505122241 17 152 3.2 9.7 0.00 0.00 0.00 73 1007.6
20260505122041 16 178 3.2 9.7 0.00 0.00 0.00 74 1007.6
20260505121841 16 179 3.2 9.7 0.00 0.00 0.00 75 1007.6
20260505121641 16 148 3.2 9.7 0.00 0.00 0.00 75 1007.6
20260505121442 16 294 3.2 9.7 0.00 0.00 0.00 76 1007.7
20260505121241 16 170 3.2 9.7 0.00 0.00 0.00 76 1007.7
20260505121041 16 166 3.2 9.7 0.00 0.00 0.00 77 1007.7
20260505120841 16 159 3.2 9.7 0.00 0.00 0.00 77 1007.8
20260505120641 15 207 3.2 8.0 0.00 0.00 0.00 78 1007.8
20260505120441 15 189 3.2 8.0 0.00 0.00 0.00 79 1007.8
20260505120241 15 171 3.2 8.0 0.00 0.00 0.00 80 1007.8
20260505120041 15 152 3.2 8.0 0.00 0.00 0.00 80 1007.9
20260505115842 15 187 3.2 8.0 0.00 0.00 0.00 82 1007.9
20260505115641 15 171 3.2 8.0 0.00 0.00 0.00 82 1007.9
20260505115441 15 179 3.2 8.0 0.00 0.00 0.00 83 1007.9
20260505115241 14 174 3.2 8.0 0.00 0.00 0.00 84 1008.0
20260505115041 14 206 3.2 8.0 0.00 0.00 0.00 84 1007.9
20260505114842 14 183 3.2 6.4 0.00 0.00 0.00 85 1007.9
20260505114641 14 183 3.2 6.4 0.00 0.00 0.00 86 1007.8
20260505114439 13 168 3.2 6.4 0.00 0.00 0.00 87 1007.9
20260505114239 13 180 3.2 6.4 0.00 0.00 0.00 87 1007.8
20260505114039 13 153 1.6 6.4 0.00 0.00 0.00 88 1007.8
20260505113835 13 123 3.2 6.4 0.00 0.00 0.00 88 1007.9
20260505113633 13 167 3.2 6.4 0.00 0.00 0.00 88 1007.9
20260505113506 13 177 3.2 6.4 0.00 0.00 0.00 89 1008.0
20260505113233 13 189 3.2 6.4 0.00 0.00 0.00 89 1008.0
20260505113033 13 163 3.2 6.4 0.00 0.00 0.00 89 1008.1
20260505112833 13 201 3.2 4.8 0.00 0.00 0.00 90 1008.1
20260505112633 13 178 3.2 4.8 0.00 0.00 0.00 90 1008.0
20260505112432 13 173 3.2 4.8 0.00 0.00 0.00 91 1008.0
20260505112233 13 158 3.2 4.8 0.00 0.00 0.00 91 1007.9
20260505112033 13 130 3.2 4.8 0.00 0.00 0.00 91 1007.9
20260505111833 12 163 3.2 4.8 0.00 0.00 0.00 92 1007.9
20260505111632 12 168 1.6 4.8 0.00 0.00 0.00 92 1007.9
20260505111433 12 155 3.2 4.8 0.00 0.00 0.00 92 1007.9
20260505111233 12 0 3.2 4.8 0.00 0.00 0.00 93 1007.9
20260505111030 12 169 3.2 4.8 0.00 0.00 0.00 93 1007.9
20260505110830 12 177 3.2 4.8 0.00 0.00 0.00 93 1007.9
20260505110630 12 166 3.2 4.8 0.00 0.00 0.00 94 1007.9
20260505110430 12 145 1.6 4.8 0.00 0.00 0.00 94 1007.9
20260505110231 12 136 1.6 4.8 0.00 0.00 0.00 94 1007.9
20260505102021 11 181 3.2 4.8 0.00 0.00 0.00 95 1007.3
20260505101823 11 151 3.2 4.8 0.00 0.00 0.00 95 1007.2
20260505101622 11 165 3.2 4.8 0.00 0.00 0.00 96 1007.1
20260505101422 11 148 1.6 4.8 0.00 0.00 0.00 96 1007.1
20260505101222 11 131 3.2 4.8 0.00 0.00 0.00 96 1007.1
20260505101022 11 153 3.2 4.8 0.00 0.00 0.00 96 1007.1
20260505100822 11 147 3.2 4.8 0.00 0.00 0.00 96 1007.0
20260505100623 11 263 3.2 4.8 0.00 0.00 0.00 96 1006.9
20260505100501 11 121 3.2 4.8 0.00 0.00 0.00 96 1006.9
20260505100221 11 185 3.2 4.8 0.00 0.00 0.00 96 1006.9
20260505100022 11 161 3.2 4.8 0.00 0.00 0.00 96 1006.8
20260505095822 11 150 3.2 4.8 0.00 0.00 0.00 96 1006.8
20260505095622 11 160 3.2 4.8 0.00 0.00 0.00 96 1006.7
20260505095422 11 155 3.2 4.8 0.00 0.00 0.00 96 1006.7
20260505095223 11 152 3.2 4.8 0.00 0.00 0.00 96 1006.7
20260505095022 11 158 3.2 4.8 0.00 0.00 0.00 96 1006.8
20260505094822 11 161 3.2 4.8 0.00 0.00 0.00 95 1006.8
20260505094622 11 143 3.2 4.8 0.00 0.00 0.00 95 1006.8
20260505094423 11 139 3.2 4.8 0.00 0.00 0.00 95 1006.8
20260505094222 11 139 3.2 4.8 0.00 0.00 0.00 95 1006.7
20260505094022 11 146 3.2 4.8 0.00 0.00 0.00 95 1006.7
20260505093823 11 150 3.2 4.8 0.00 0.00 0.00 95 1006.8
20260505093625 11 166 3.2 4.8 0.00 0.00 0.00 95 1006.8
20260505093422 11 167 3.2 3.2 0.00 0.00 0.00 95 1006.8
20260505093222 11 161 3.2 3.2 0.00 0.00 0.00 95 1006.8
20260505093023 11 178 3.2 3.2 0.00 0.00 0.00 95 1006.8
20260505092823 11 207 3.2 3.2 0.00 0.00 0.00 95 1006.9
20260505092622 11 163 1.6 3.2 0.00 0.00 0.00 95 1006.8
20260505092422 11 160 1.6 4.8 0.00 0.00 0.00 95 1006.8
20260505092222 11 164 1.6 4.8 0.00 0.00 0.00 95 1006.8
20260505092022 11 0 1.6 4.8 0.00 0.00 0.00 95 1006.9
20260505091823 11 170 3.2 4.8 0.00 0.00 0.00 95 1006.9
20260505091622 11 146 3.2 4.8 0.00 0.00 0.00 95 1006.9
20260505091422 11 167 3.2 4.8 0.00 0.00 0.00 95 1006.9
20260505091221 11 142 3.2 4.8 0.00 0.00 0.00 95 1006.9
20260505091020 11 160 3.2 4.8 0.00 0.00 0.00 95 1007.0
20260505090819 11 176 3.2 4.8 0.00 0.00 0.00 95 1006.9
20260505090620 11 156 3.2 4.8 0.00 0.00 0.00 95 1007.0
20260505090417 11 158 3.2 4.8 0.00 0.00 0.00 95 1007.0
20260505090217 11 166 3.2 4.8 0.00 0.00 0.00 95 1006.9
20260505090016 11 151 3.2 3.2 0.00 0.00 0.00 95 1006.9
20260505085817 11 179 3.2 3.2 0.00 0.00 0.00 95 1006.9
20260505085617 11 163 3.2 4.8 0.00 0.00 0.00 94 1006.9
20260505085417 11 151 3.2 4.8 0.00 0.00 0.00 94 1006.9
20260505085217 11 136 3.2 4.8 0.00 0.00 0.00 94 1006.9
20260505085014 11 161 3.2 4.8 0.00 0.00 0.00 94 1006.9
20260505084815 11 181 1.6 4.8 0.00 0.00 0.00 94 1006.9
20260505084613 11 186 1.6 4.8 0.00 0.00 0.00 94 1006.8
20260505084414 11 149 1.6 4.8 0.00 0.00 0.00 94 1006.9
20260505084214 11 156 3.2 4.8 0.00 0.00 0.00 94 1006.9
20260505084014 11 152 1.6 4.8 0.00 0.00 0.00 94 1006.9
20260505083815 11 153 3.2 4.8 0.00 0.00 0.00 94 1006.9
20260505083614 11 139 3.2 4.8 0.00 0.00 0.00 94 1006.9
20260505083414 11 155 3.2 4.8 0.00 0.00 0.00 94 1006.9
20260505083214 11 135 3.2 4.8 0.00 0.00 0.00 94 1006.9
20260505083013 11 177 3.2 4.8 0.00 0.00 0.00 94 1006.9
20260505082816 11 156 3.2 4.8 0.00 0.00 0.00 94 1006.9
20260505082614 11 325 3.2 4.8 0.00 0.00 0.00 94 1006.9
20260505082414 11 159 3.2 4.8 0.00 0.00 0.00 94 1006.9
20260505082214 11 145 3.2 4.8 0.00 0.00 0.00 94 1006.8
20260505082015 11 162 3.2 4.8 0.00 0.00 0.00 94 1006.8
20260505081816 11 157 3.2 6.4 0.00 0.00 0.00 94 1006.9
20260505081614 11 145 3.2 6.4 0.00 0.00 0.00 94 1006.9
20260505081414 11 162 3.2 6.4 0.00 0.00 0.00 94 1006.9
20260505081214 11 161 3.2 6.4 0.00 0.00 0.00 94 1006.9
20260505081014 11 159 3.2 6.4 0.00 0.00 0.00 94 1006.9
20260505080816 11 139 3.2 6.4 0.00 0.00 0.00 93 1006.9
20260505080615 11 153 3.2 6.4 0.00 0.00 0.00 93 1006.9
20260505080411 11 116 3.2 6.4 0.00 0.00 0.00 93 1006.9
20260505080211 11 122 3.2 6.4 0.00 0.00 0.00 93 1006.9
20260505080048 11 106 3.2 4.8 0.00 0.00 0.00 93 1006.9
20260505075810 11 134 3.2 4.8 0.00 0.00 0.00 93 1006.9
20260505075608 11 138 3.2 4.8 0.00 0.00 0.00 93 1006.9
20260505075455 11 156 3.2 4.8 0.00 0.00 0.00 93 1006.9
20260505075205 11 157 3.2 4.8 0.00 0.00 0.00 93 1006.9
20260505075006 11 131 3.2 4.8 0.00 0.00 0.00 93 1006.9
20260505074807 11 148 3.2 4.8 0.00 0.00 0.00 93 1006.9
20260505074606 11 137 1.6 4.8 0.00 0.00 0.00 93 1006.9
20260505074406 11 151 3.2 4.8 0.00 0.00 0.00 93 1006.9
20260505074205 11 260 3.2 4.8 0.00 0.00 0.00 93 1006.8
20260505074006 11 157 3.2 4.8 0.00 0.00 0.00 93 1006.8
20260505073807 11 159 3.2 4.8 0.00 0.00 0.00 93 1006.9
20260505073606 11 157 3.2 4.8 0.00 0.00 0.00 93 1006.9
20260505073406 11 141 3.2 4.8 0.00 0.00 0.00 93 1006.9
20260505073206 11 166 1.6 4.8 0.00 0.00 0.00 93 1006.9
20260505073006 11 155 3.2 6.4 0.00 0.00 0.00 93 1006.8
20260505072804 11 140 3.2 6.4 0.00 0.00 0.00 93 1006.9
20260505072604 11 159 3.2 6.4 0.00 0.00 0.00 93 1006.8
20260505072403 11 107 3.2 6.4 0.00 0.00 0.00 93 1006.8
20260505072203 11 137 3.2 6.4 0.00 0.00 0.00 93 1006.8
20260505072003 11 152 3.2 6.4 0.00 0.00 0.00 93 1006.9
20260505071803 11 174 3.2 4.8 0.00 0.00 0.00 93 1006.8
20260505071603 11 151 3.2 4.8 0.00 0.00 0.00 93 1006.9
20260505071403 11 173 3.2 6.4 0.00 0.00 0.00 93 1006.9
20260505071204 11 123 3.2 6.4 0.00 0.00 0.00 93 1006.9
20260505071003 11 277 3.2 6.4 0.00 0.00 0.00 93 1006.9
20260505070803 11 141 3.2 6.4 0.00 0.00 0.00 93 1006.8
20260505070603 11 142 3.2 6.4 0.00 0.00 0.00 93 1006.8
20260505070449 11 130 3.2 6.4 0.00 0.00 0.00 93 1006.8
20260505070203 11 154 1.6 4.8 0.00 0.00 0.00 92 1006.9
20260505070004 11 122 1.6 4.8 0.00 0.00 0.00 93 1006.9
20260505065803 11 156 1.6 4.8 0.00 0.00 0.00 92 1006.9
20260505065603 11 162 1.6 6.4 0.00 0.00 0.00 92 1006.9
20260505065403 11 178 1.6 6.4 0.00 0.00 0.00 92 1006.9
20260505065204 11 134 1.6 6.4 0.00 0.00 0.00 92 1006.9
20260505065004 11 141 3.2 6.4 0.00 0.00 0.00 92 1006.9
20260505064803 11 115 3.2 6.4 0.00 0.00 0.00 92 1006.9
20260505064603 11 154 3.2 6.4 0.00 0.00 0.00 92 1006.9
20260505064441 11 191 1.6 6.4 0.00 0.00 0.00 92 1006.9
20260505064217 11 130 1.6 6.4 0.00 0.00 0.00 92 1007.0
20260505064001 11 146 1.6 4.8 0.00 0.00 0.00 92 1007.0
20260505063801 12 119 1.6 6.4 0.00 0.00 0.00 92 1007.0
20260505063558 12 146 1.6 6.4 0.00 0.00 0.00 92 1007.0
20260505063358 12 173 3.2 6.4 0.00 0.00 0.00 92 1007.0
20260505063158 12 152 3.2 6.4 0.00 0.00 0.00 92 1007.0
20260505062957 12 136 3.2 6.4 0.00 0.00 0.00 92 1007.0
20260505062758 12 156 3.2 8.0 0.00 0.00 0.00 92 1007.0
20260505062558 12 161 3.2 8.0 0.00 0.00 0.00 92 1007.1
20260505062358 12 133 3.2 8.0 0.00 0.00 0.00 92 1007.1
20260505062158 12 119 3.2 8.0 0.00 0.00 0.00 92 1007.1
20260505061958 12 159 3.2 8.0 0.00 0.00 0.00 91 1007.1
20260505061800 12 137 3.2 8.0 0.00 0.00 0.00 91 1007.1
20260505061558 12 136 3.2 8.0 0.00 0.00 0.00 91 1007.1
20260505061358 12 171 3.2 8.0 0.00 0.00 0.00 91 1007.2
20260505061158 12 0 3.2 8.0 0.00 0.00 0.00 91 1007.2
20260505060955 12 150 3.2 8.0 0.00 0.00 0.00 91 1007.2
20260505060755 12 157 3.2 6.4 0.00 0.00 0.00 91 1007.2
20260505060555 12 163 3.2 6.4 0.00 0.00 0.00 91 1007.2
20260505060355 12 126 3.2 6.4 0.00 0.00 0.00 91 1007.2
20260505060155 12 149 3.2 6.4 0.00 0.00 0.00 91 1007.2
20260505055955 12 164 3.2 6.4 0.00 0.00 0.00 91 1007.2
20260505055756 12 154 3.2 6.4 0.00 0.00 0.00 91 1007.2
20260505055555 12 158 3.2 6.4 0.00 0.00 0.00 91 1007.3
20260505055355 12 92 3.2 6.4 0.00 0.00 0.00 90 1007.2
20260505055155 12 204 3.2 6.4 0.00 0.00 0.00 90 1007.3
20260505054956 12 159 3.2 6.4 0.00 0.00 0.00 90 1007.3
20260505054755 12 176 3.2 6.4 0.00 0.00 0.00 90 1007.3
20260505054555 12 181 3.2 6.4 0.00 0.00 0.00 90 1007.4
20260505054447 12 174 3.2 6.4 0.00 0.00 0.00 90 1007.4
20260505054155 12 186 3.2 6.4 0.00 0.00 0.00 90 1007.4
20260505053955 12 167 3.2 6.4 0.00 0.00 0.00 89 1007.4
20260505053756 12 133 3.2 6.4 0.00 0.00 0.00 89 1007.4
20260505053556 12 82 3.2 8.0 0.00 0.00 0.00 89 1007.4
20260505053355 12 155 3.2 8.0 0.00 0.00 0.00 89 1007.4
20260505053155 12 175 3.2 8.0 0.00 0.00 0.00 89 1007.4
20260505052956 12 183 3.2 8.0 0.00 0.00 0.00 89 1007.4
20260505052756 12 164 3.2 8.0 0.00 0.00 0.00 89 1007.4
20260505052555 12 173 3.2 8.0 0.00 0.00 0.00 88 1007.4
20260505052442 12 181 3.2 8.0 0.00 0.00 0.00 88 1007.4
20260505052154 12 144 3.2 8.0 0.00 0.00 0.00 88 1007.5
20260505051951 12 182 3.2 8.0 0.00 0.00 0.00 88 1007.5
20260505051752 12 173 3.2 8.0 0.00 0.00 0.00 88 1007.4
20260505051551 12 156 3.2 8.0 0.00 0.00 0.00 88 1007.5
20260505051351 12 198 3.2 6.4 0.00 0.00 0.00 87 1007.5
20260505051151 12 179 3.2 6.4 0.00 0.00 0.00 87 1007.5
20260505050951 12 165 3.2 6.4 0.00 0.00 0.00 87 1007.5
20260505050753 12 163 3.2 6.4 0.00 0.00 0.00 87 1007.5
20260505050551 12 172 3.2 6.4 0.00 0.00 0.00 87 1007.5
20260505050440 12 179 3.2 6.4 0.00 0.00 0.00 87 1007.5
20260505050151 12 160 3.2 6.4 0.00 0.00 0.00 86 1007.5
20260505041734 13 149 3.2 6.4 0.00 0.00 0.00 83 1007.8
20260505041535 13 153 3.2 6.4 0.00 0.00 0.00 83 1007.8
20260505041335 13 162 3.2 6.4 0.00 0.00 0.00 82 1007.9
20260505041134 13 142 3.2 6.4 0.00 0.00 0.00 82 1007.8
20260505040935 13 183 3.2 11.3 0.00 0.00 0.00 82 1007.8
20260505040735 13 176 3.2 11.3 0.00 0.00 0.00 81 1007.9
20260505040534 13 156 3.2 11.3 0.00 0.00 0.00 81 1007.9
20260505040335 13 188 3.2 11.3 0.00 0.00 0.00 80 1007.9
20260505040135 13 175 3.2 11.3 0.00 0.00 0.00 80 1007.8
20260505035935 13 175 4.8 11.3 0.00 0.00 0.00 80 1007.8
20260505035730 13 171 4.8 12.9 0.00 0.00 0.00 79 1007.8
20260505035530 13 187 4.8 12.9 0.00 0.00 0.00 78 1007.8
20260505035330 13 169 4.8 12.9 0.00 0.00 0.00 78 1007.8
20260505035131 13 187 4.8 12.9 0.00 0.00 0.00 78 1007.8
20260505034929 13 268 4.8 12.9 0.00 0.00 0.00 78 1007.8
20260505034729 13 194 4.8 12.9 0.00 0.00 0.00 78 1007.8
20260505034529 13 188 4.8 12.9 0.00 0.00 0.00 77 1007.8
20260505034329 13 189 4.8 12.9 0.00 0.00 0.00 77 1007.7
20260505034145 13 228 4.8 12.9 0.00 0.00 0.00 77 1007.7
20260505033929 13 186 3.2 11.3 0.00 0.00 0.00 77 1007.7
20260505033729 13 186 4.8 11.3 0.00 0.00 0.00 77 1007.7
20260505033529 13 148 4.8 11.3 0.00 0.00 0.00 77 1007.7
20260505033428 13 173 4.8 11.3 0.00 0.00 0.00 76 1007.7
20260505033129 13 184 4.8 11.3 0.00 0.00 0.00 76 1007.7
20260505032928 13 188 4.8 11.3 0.00 0.00 0.00 77 1007.7
20260505032728 13 187 4.8 11.3 0.00 0.00 0.00 77 1007.8
20260505032528 13 184 4.8 11.3 0.00 0.00 0.00 76 1007.8
20260505032328 13 182 4.8 11.3 0.00 0.00 0.00 77 1007.8
20260505032129 13 179 4.8 8.0 0.00 0.00 0.00 77 1007.8
20260505031928 13 189 4.8 8.0 0.00 0.00 0.00 77 1007.8
20260505031728 13 205 4.8 9.7 0.00 0.00 0.00 77 1007.8
20260505031528 13 198 4.8 9.7 0.00 0.00 0.00 77 1007.9
20260505031428 13 185 4.8 9.7 0.00 0.00 0.00 77 1007.9
20260505031128 13 179 4.8 9.7 0.00 0.00 0.00 77 1007.9
20260505030929 13 178 4.8 9.7 0.00 0.00 0.00 77 1007.9
20260505030728 13 190 4.8 9.7 0.00 0.00 0.00 76 1007.9
20260505030528 13 186 4.8 8.0 0.00 0.00 0.00 76 1007.9
20260505030129 13 145 4.8 9.7 0.00 0.00 0.00 76 1007.8
20260505025930 13 190 4.8 9.7 0.00 0.00 0.00 76 1007.9
20260505025728 13 190 3.2 9.7 0.00 0.00 0.00 76 1007.9
20260505025528 13 216 4.8 9.7 0.00 0.00 0.00 76 1007.9
20260505025428 13 193 4.8 9.7 0.00 0.00 0.00 76 1007.9